User: anonymous   Login
Location: Unspecified
(0.0000°N, 0.0000°E)
Time: 21:44:57
(UTC+01:00)
Language:

ARIANE DEB (SPELDA) - Orbit

View from above orbital plane
View from above orbital plane
View from above satellite
View from above satellite

Ground track
Ground track

The orbit data is extracted from the following two-line orbital elements,

1 27402U 02015D   14330.47829867  .00001719  00000-0  18521-2 0  1107
2 27402 003.3358 180.4036 7102053 207.5319 020.6887 02.46088105110902
Epoch (UTC): 26 November 2014 11:28:45
Eccentricity: 0.7102053
inclination: 3.3358°
perigee height: 337 km
apogee height: 33254 km
right ascension of ascending node: 180.4036°
argument of perigee: 207.5319°
revolutions per day: 2.46088105
mean anomaly at epoch: 20.6887°
orbit number at epoch: 11090

The dashed part of the orbit path shows where the satellite is in the earth's shadow,  

DLR